Location: Andershausen
(51.8462°N, 9.8595°E)
Time: 09:10:15
(UTC+00:00)

ATLAS 5 CENTAUR R/B - Pass Details

Date: 18 November 2025
Orbit: 373 x 1090 km, 63.3° (Epoch: 11 December)

Event Time Altitude Azimuth Distance (km) Brightness Sun altitude
Rises 16:04:24 0° 311° (NW) 2,691 5.2 -6.1°
Reaches altitude 10° 16:06:26 10° 307° (NW) 1,893 4.5 -6.4°
Maximum altitude 16:10:36 52° 231° (SW) 830 2.7 -7.0°
Drops below altitude 10° 16:15:44 10° 156° (SSE) 2,335 4.5 -7.7°
Sets 16:18:29 0° 152° (SSE) 3,389 5.3 -8.1°
